STARLINK-31959, 59925

Orbit data source: Space-Track

STARLINK-31959, 59925 is a payload satellite owned by SpaceX/Seattle (US) in LEO that was launched on Sat, 01 Jun 2024 UTC via an FALCON 9 launch vehicle from the Air Force Eastern Test Range (AFETR). Payload-class satellites include a variety of spacecraft equipped with specific instruments for various scientific and technological missions. These include communications satellites like Starlink; space stations such as the ISS; scientific satellites like the Hubble; Earth observation satellites from companies like Planet Labs, Umbra, and HawkEye 360; GPS; miniature CubeSats for education and research; and military/defense satellites.

Loading next visibility...
Identifier
59925, 2024-106D
Orbit
LEO
Last TLE update
23 hours ago
Origin
Manufacturer
SpaceX/Seattle
Mission
Operational spacecraft
Bus & Motor
STARLINK V2M, Unknown motor
Mass
730 kg wet, ~700 kg dry
Launch date (UTC)
2024-06-01 (1 year ago)
Launch vehicle
FALCON 9
Launch site
Air Force Eastern Test Range (AFETR)
Object type
Payload
Rocket body
Debris
Shape & HBR
Unknown
Radar Cross Section
Large (>1 m²)

Expand to show TLE details & history

TLE from 23 hours ago
0 STARLINK-31959
1 59925U 24106D   25169.31503529 -.00000910  00000-0 -23550-4 0  9995
2 59925  43.0011  21.7324 0000670 325.5274  34.5534 15.27578982 60139
Epoch: 2025-06-18T07:33Z
TLE epoch observation values (Epoch: 2025-06-18T07:33:39.049Z)
Latitude
-0.00001°
Longitude
1.52085°
Altitude
482.449 km
Speed
7.626 km/s
True Right ascension
01h 26m 55s
True Declination
0° 00' 00"
Sunlit
Object was in daylight at epoch
Visualization orbit readout
Latitude
21.62789°
Longitude
151.18503°
Altitude
483.003 km
Speed
7.627 km/s
Apparent Right ascension
08h 46m 31s
Apparent Declination
-11° 33' 20"
Sunlit
Object is in daylight
Visualization observer readout
Local Sidereal Time
17:00:48
Azimuth
283.369° WNW
Elevation
-32.961°
Doppler factor
1
Orbital elements
Apogee altitude
485.457 km
Perigee altitude
484.537 km
Semi-major axis
6,863.134 km
Eccentricity
0.00007
Inclination
43.0011°
RAAN
21.7324°
Arg. of periapsis
325.5274°
True anomaly
Unknown
Mean anomaly
34.5534°
Eccentric anomaly
Unknown
Mean motion
3.81733 °/min
Orbital period
94.31 mins
BSTAR
-0.00002355
Loading maneuver chart data...
Loading SW <> Apogee altitude chart data...
Loading historical data...
Loading historical data...
Loading historical data...
Loading historical data...
Loading historical data...
Loading historical data...
Loading historical data...

STARLINK-31959 Visibility forecast

Observer location: undefined°, undefined°

Span
Click to sort rows by Start time (UTC) header in descending order
Start Az.
Max El. time (UTC)
Max El. Az.
Max El.
End time (UTC)
End Az.
5 mins2025-06-19 16:42:22.155Z199.76° SSW2025-06-19 16:45:22.155Z138.174° SSE23.064°2025-06-19 16:47:22.155Z98.173° ESE
6 mins2025-06-19 18:21:22.155Z255.301° W2025-06-19 18:23:22.155Z270.559° WNW43.171°2025-06-19 18:27:22.155Z71.393° E
6 mins2025-06-19 20:00:22.155Z288.755° WNW2025-06-19 20:03:22.155Z28.295° NE36.514°2025-06-19 20:06:22.155Z77.286° E
6 mins2025-06-19 21:39:22.155Z288.519° WNW2025-06-19 21:42:22.155Z102.643° ESE43.89°2025-06-19 21:45:22.155Z108.314° ESE
4 mins2025-06-19 23:19:22.155Z245.535° WSW2025-06-19 23:20:22.155Z223.029° SW21.33°2025-06-19 23:23:22.155Z163.714° S
|